Location: Campillo
(40.8621°N, 4.2488°W)
Time: 13:17:13
(UTC+00:00)

Cosmos 2082 Rocket - Pass Details

Date: 11 May 2021
Orbit: 834 x 852 km, 71.0° (Epoch: 13 June)

Event Time Altitude Azimuth Distance (km) Brightness Sun altitude
Rises 21:36:40 0° 341° (NNW) 3,390 6.6 -20.7°
Reaches altitude 10° 21:39:14 10° 348° (NNW) 2,453 5.5 -21.0°
Maximum altitude 21:44:36 44° 61° (ENE) 1,137 2.8 -21.7°
Enters shadow 21:46:04 37° 99° (E) 1,282 2.8 -21.8°
